This is the latest recevied weather packets stored in our database for station/object KK7KRZ. If no packets are shown the sender has not sent any weather packets the latest 1 day(s).
| Time | Temp. | Humidity | Pressure | Rain* | Wind** | Luminosity | Snow |
|---|---|---|---|---|---|---|---|
| 1778007378 | 15° C | 79% | 1016.6 hPa | 0 mm | 0.45 m/s, 135° | 123 W/m² | - |
| 1778007074 | 15° C | 78% | 1016.4 hPa | 0 mm | 0 m/s | 122 W/m² | - |
| 1778006771 | 15° C | 79% | 1016.6 hPa | 0 mm | 0 m/s | 121 W/m² | - |
| 1778006468 | 15° C | 79% | 1016.5 hPa | 0 mm | 0 m/s | 122 W/m² | - |
| 1778006165 | 15° C | 79% | 1016.6 hPa | 0 mm | 0.45 m/s, 175° | 119 W/m² | - |
| 1778005863 | 14.44° C | 80% | 1016.4 hPa | 0 mm | 0 m/s | 112 W/m² | - |
| 1778005558 | 14.44° C | 80% | 1016.5 hPa | 0 mm | 0 m/s | 102 W/m² | - |
| 1778005255 | 14.44° C | 80% | 1016.4 hPa | 0 mm | 0.89 m/s, 144° | 104 W/m² | - |
| 1778004952 | 15° C | 79% | 1016.5 hPa | 0 mm | 0.45 m/s, 63° | 108 W/m² | - |
| 1778004649 | 15° C | 80% | 1016.4 hPa | 0 mm | 0 m/s | 110 W/m² | - |
| 1778004345 | 15° C | 78% | 1016.5 hPa | 0 mm | 0 m/s | 116 W/m² | - |
| 1778004044 | 15° C | 80% | 1016.4 hPa | 0 mm | 0 m/s | 120 W/m² | - |
| 1778003743 | 15° C | 79% | 1016.2 hPa | 0 mm | 0 m/s | 119 W/m² | - |
| 1778003441 | 15° C | 79% | 1016.3 hPa | 0 mm | 0 m/s | 113 W/m² | - |
| 1778003137 | 15° C | 79% | 1016.3 hPa | 0 mm | 0 m/s | 106 W/m² | - |
| 1778002833 | 15° C | 80% | 1016.3 hPa | 0 mm | 0 m/s | 101 W/m² | - |
| 1778002530 | 14.44° C | 81% | 1016.2 hPa | 0 mm | 0 m/s | 106 W/m² | - |
| 1778002227 | 13.89° C | 81% | 1016.2 hPa | 0 mm | 0 m/s | 113 W/m² | - |
| 1778001925 | 13.89° C | 82% | 1016.4 hPa | 0 mm | 0 m/s | 120 W/m² | - |
| 1778001620 | 13.89° C | 82% | 1016.2 hPa | 0 mm | 0.45 m/s, 162° | 116 W/m² | - |
| 1778001316 | 13.89° C | 83% | 1016.1 hPa | 0 mm | 0 m/s | 115 W/m² | - |
| 1778001014 | 13.89° C | 82% | 1016.1 hPa | 0 mm | 0.89 m/s, 122° | 118 W/m² | - |
| 1778000710 | 13.89° C | 82% | 1016.2 hPa | 0 mm | 0.45 m/s, 81° | 121 W/m² | - |
| 1778000406 | 13.89° C | 81% | 1016.1 hPa | 0 mm | 0.45 m/s, 93° | 120 W/m² | - |
| 1778000096 | 14.44° C | 80% | 1016.2 hPa | 0 mm | 0.45 m/s, 142° | 104 W/m² | - |
* Rain latest hour (hover to see other rain measurements)
** Current wind speed in m/s (hover to see current wind gust speed)